Wind_Speed
35 38 42 45 47 49 50 51 52 53 55 57 59 60 62 64 64 64 64 64 64 65 66 66 66 66 66 65 65 67 69 72 73 72 74 74 73 69 65 60 56 53 51
39 42 45 48 50 52 53 53 55 57 60 61 62 62 63 63 63 63 63 62 62 63 62 61 61 60 61 63 65 68 71 73 73 72 67 62 58 55 52 49 46 43 40
43 46 49 51 53 55 56 57 59 62 64 64 63 63 63 62 61 61 61 60 59 59 58 57 57 58 61 63 66 68 69 69 67 62 55 50 48 45 43 40 37 34 32
46 49 52 54 55 57 59 62 64 65 65 64 62 62 62 63 62 60 58 56 55 55 55 55 57 59 61 63 65 65 63 58 54 50 45 41 38 37 34 30 27 26 25
49 52 55 57 60 62 64 65 66 65 63 61 61 61 60 60 58 56 54 53 53 53 54 56 58 60 61 62 60 56 51 46 42 38 34 31 29 27 25 22 20 20 20
52 54 57 58 60 61 62 61 61 60 59 58 58 58 57 55 53 52 51 52 53 54 55 56 57 58 57 53 48 44 40 36 31 27 24 22 20 19 18 16 15 16 16
52 53 53 53 54 55 55 55 56 56 56 56 56 55 53 51 50 49 50 52 53 54 54 54 52 50 45 39 35 33 30 26 22 19 17 16 15 14 13 12 12 12 12
49 49 49 49 50 52 53 53 53 53 53 53 51 49 48 47 48 49 50 51 51 51 49 46 41 36 31 28 25 23 21 18 16 14 12 12 11 11 10 9 9 9 9
45 45 46 47 49 49 50 50 50 49 48 47 46 46 46 47 47 47 47 47 45 43 39 34 30 25 23 20 18 16 14 12 11 10 10 9 9 8 8 9 9 9 9
42 42 43 44 45 45 46 46 45 45 44 44 44 44 44 44 43 41 40 38 36 33 29 26 22 20 17 15 12 10 9 9 9 8 9 8 9 9 9 10 11 12 12
38 39 40 41 42 43 43 42 42 42 42 42 42 41 39 37 34 33 32 30 27 24 22 19 17 15 13 10 8 8 8 8 9 9 10 10 11 12 13 15 15 14 13
37 38 39 39 39 39 39 40 40 40 40 39 37 34 31 29 28 27 27 25 21 18 16 13 12 10 8 7 7 8 9 10 11 11 12 13 15 16 16 15 13 11 10
35 36 36 37 37 38 39 39 38 37 35 32 30 28 27 25 24 24 23 20 17 13 10 7 6 6 6 6 7 9 10 11 12 14 15 16 17 16 14 12 11 10 9
33 34 35 36 37 37 37 35 33 31 29 27 27 26 25 23 23 22 20 16 12 7 4 4 5 5 6 7 9 10 11 13 14 16 17 17 16 14 13 12 12 12 11
32 34 35 35 35 33 31 30 28 27 26 25 25 24 22 21 20 18 16 12 7 3 2 4 5 6 7 8 9 11 12 13 15 17 17 17 16 15 15 15 14 13 13
33 33 33 32 30 28 27 26 25 24 24 23 22 20 19 17 16 15 12 7 3 2 3 4 5 6 8 9 10 11 12 14 16 18 17 17 17 16 16 15 15 15 15
32 31 29 27 26 24 24 23 22 21 20 19 17 16 15 14 13 11 6 2 4 4 4 4 5 7 8 9 10 11 13 15 17 17 18 18 19 18 18 17 16 16 16
27 26 24 23 22 21 21 20 19 17 15 14 13 12 11 11 8 3 2 6 7 6 5 5 6 7 8 9 10 12 13 15 16 17 18 19 20 20 19 18 17 17 17
23 22 21 20 19 19 18 17 15 13 11 10 9 8 8 6 3 5 8 9 9 7 6 6 6 7 8 9 10 12 14 15 16 17 18 19 21 21 21 20 19 17 16
22 21 19 18 16 15 13 12 11 10 9 8 7 8 8 7 8 10 12 11 10 8 7 6 6 7 7 9 10 12 14 15 16 16 17 19 21 22 22 21 20 19 18
20 19 17 15 14 12 11 9 9 8 8 8 9 10 11 12 13 14 14 12 10 9 8 7 7 7 8 9 11 12 14 15 15 16 17 19 20 22 22 22 22 21 21
19 17 15 14 13 12 10 9 8 8 9 10 11 13 14 15 16 15 14 12 10 9 8 8 8 8 9 10 12 13 14 15 16 16 16 17 19 21 22 22 22 22 23
19 18 16 15 14 12 12 11 11 11 12 13 14 15 16 17 16 14 13 11 11 10 10 9 10 10 11 12 13 13 14 15 16 16 16 17 18 19 20 20 21 21 22
22 20 18 17 15 14 14 14 14 14 14 15 17 17 17 16 15 14 13 12 12 12 11 12 12 12 12 13 14 14 15 15 16 16 16 16 17 17 18 19 19 20 20
24 22 20 19 17 17 16 16 16 16 17 17 17 17 17 16 15 14 13 13 13 13 13 13 13 13 13 14 14 15 15 16 16 16 16 17 17 18 18 19 19 19 20
27 25 23 21 19 18 17 17 17 17 17 17 17 17 16 15 15 14 13 13 14 14 14 14 14 14 14 15 15 15 16 16 17 16 16 17 17 17 18 18 18 18 18
Wind_Direction
282 282 283 284 285 286 287 289 291 293 295 296 298 298 297 295 293 293 293 294 296 296 297 297 297 296 295 294 293 293 293 293 293 292 291 291 290 289 288 286 284 281 276
280 281 282 283 284 286 287 289 291 293 296 297 298 297 297 296 295 296 297 297 298 299 298 297 297 296 294 294 295 295 295 295 295 294 294 294 293 291 289 287 284 281 276
278 279 281 282 284 285 287 289 291 293 294 295 296 295 295 296 298 300 300 300 300 299 298 297 297 297 297 297 297 296 296 296 297 298 298 295 293 291 290 288 286 282 275
278 279 280 282 284 285 287 289 290 292 294 294 294 294 296 298 301 302 302 300 299 299 298 298 298 298 297 297 297 297 298 299 300 300 300 297 294 292 292 291 287 283 277
280 280 281 282 284 286 287 289 291 292 294 294 295 296 299 301 302 302 301 300 299 299 299 299 299 298 297 297 298 300 301 302 302 302 301 298 296 296 296 293 289 284 280
283 283 283 284 286 287 288 290 291 293 294 295 297 299 300 302 301 301 300 300 300 300 300 299 298 298 298 300 302 304 305 307 309 309 308 305 304 304 302 299 294 290 287
287 287 287 287 287 288 290 291 293 295 297 298 300 301 301 301 302 301 301 301 301 300 300 299 298 299 302 305 306 308 311 314 317 318 316 315 315 316 315 314 312 307 302
289 289 289 288 288 289 291 293 296 298 298 299 300 300 301 302 302 302 302 301 301 300 300 300 302 304 307 310 313 315 319 323 326 328 329 330 331 331 332 332 330 325 320
289 288 288 288 290 292 294 296 298 299 299 300 301 302 303 303 303 303 303 302 302 302 304 305 308 311 314 318 321 326 331 336 339 341 344 346 347 348 347 344 339 332 323
290 290 290 292 294 295 297 298 300 301 301 302 304 305 305 305 305 305 306 306 307 309 310 313 317 322 327 331 336 342 349 354 356 358 356 354 350 347 343 337 329 321 313
294 294 296 297 298 298 299 301 302 303 304 305 306 306 307 307 308 310 311 312 312 313 314 317 323 330 338 345 355 4 8 8 5 0 355 348 341 335 330 327 325 322 318
297 298 299 300 300 301 302 303 305 306 307 307 308 308 310 311 313 315 316 316 315 314 316 321 331 341 353 4 13 17 15 11 5 359 352 344 338 334 333 332 335 338 340
300 300 301 302 304 305 306 307 307 307 307 307 309 310 311 312 314 316 317 317 315 316 320 334 352 3 16 23 23 18 13 8 2 356 351 347 346 348 354 2 8 11 18
303 304 305 306 307 307 307 307 307 306 307 307 308 309 309 309 311 313 315 316 315 318 338 17 29 34 32 27 22 17 12 7 3 360 359 1 6 16 28 34 37 41 50
307 307 308 308 307 307 306 306 307 307 307 307 307 307 307 307 308 309 310 310 309 319 49 52 39 35 30 24 20 17 15 13 12 12 14 21 33 44 48 48 51 58 64
310 310 310 309 309 309 309 310 311 311 310 308 307 306 305 305 305 304 303 294 259 144 96 65 45 36 30 26 25 25 26 24 22 23 33 45 51 52 53 56 62 71 73
313 313 313 313 313 313 314 315 316 315 313 311 310 310 308 307 305 301 290 221 157 131 106 74 56 43 33 33 37 38 35 32 32 40 53 56 56 57 60 64 70 75 76
319 318 317 318 318 319 319 320 321 321 320 320 320 318 316 315 314 301 164 143 134 123 104 84 64 43 38 42 46 45 42 41 46 56 60 60 60 60 63 67 73 76 75
326 324 323 322 323 323 324 326 329 331 332 333 335 335 340 351 38 105 124 127 123 115 101 83 59 46 45 50 53 52 52 52 58 65 65 64 63 64 66 69 73 76 76
334 333 331 330 331 333 335 338 343 349 355 4 11 20 34 61 89 107 116 118 114 104 92 75 57 49 54 61 63 62 62 62 67 70 70 67 66 67 68 72 74 76 75
345 344 345 347 349 352 355 359 4 12 25 35 42 52 65 79 95 106 112 111 104 94 83 68 58 60 70 75 75 72 70 71 74 74 72 69 68 69 70 73 76 76 75
1 1 3 7 11 15 19 23 32 43 52 60 67 72 79 88 98 104 106 102 93 84 76 68 68 76 84 86 85 81 78 78 80 78 76 72 70 70 71 73 76 77 76
16 18 20 23 27 33 39 48 57 62 68 74 79 83 88 94 99 100 97 90 83 79 75 72 75 83 90 94 92 87 83 83 84 81 78 75 73 71 72 74 77 79 80
28 30 32 35 40 47 55 62 66 71 78 83 86 89 93 96 97 95 90 85 82 80 76 77 82 88 96 99 95 91 88 88 86 83 79 78 75 74 76 78 79 80 80
36 38 40 45 51 58 63 67 72 77 83 87 90 92 93 93 93 91 87 82 80 79 80 81 85 92 99 102 99 95 93 92 90 87 82 80 79 79 80 81 80 79 78
41 44 47 51 55 60 65 71 76 80 85 88 91 92 91 89 88 86 83 81 80 80 82 83 87 93 99 103 102 100 97 96 94 90 86 83 81 79 79 78 77 76 75
Height
5779 5777 5774 5771 5768 5764 5760 5756 5751 5747 5742 5737 5731 5725 5719 5712 5706 5700 5694 5689 5683 5676 5670 5663 5656 5649 5641 5634 5626 5618 5610 5602 5598 5595 5582 5573 5564 5557 5551 5546 5542 5539 5537
5771 5768 5765 5761 5757 5753 5749 5744 5739 5734 5729 5723 5717 5711 5704 5698 5691 5685 5679 5673 5667 5661 5654 5646 5639 5632 5624 5617 5609 5601 5591 5582 5574 5571 5564 5554 5546 5539 5534 5530 5527 5524 5522
5762 5758 5754 5750 5746 5741 5736 5731 5726 5721 5715 5709 5703 5697 5690 5683 5677 5671 5664 5658 5651 5645 5638 5631 5624 5616 5609 5601 5593 5584 5574 5564 5555 5549 5546 5539 5532 5526 5521 5518 5514 5512 5511
5751 5746 5742 5738 5733 5728 5723 5718 5712 5706 5701 5695 5689 5683 5676 5669 5662 5656 5649 5643 5636 5630 5623 5616 5609 5601 5594 5586 5577 5568 5559 5551 5543 5536 5531 5526 5520 5515 5511 5508 5506 5503 5502
5738 5734 5729 5725 5720 5714 5709 5703 5697 5692 5686 5680 5675 5669 5662 5655 5648 5642 5635 5628 5622 5615 5608 5601 5594 5586 5578 5570 5562 5554 5546 5539 5533 5526 5521 5516 5512 5507 5504 5502 5500 5497 5496
5725 5720 5715 5711 5705 5700 5694 5688 5682 5677 5672 5666 5660 5654 5648 5642 5635 5628 5621 5615 5608 5602 5595 5587 5579 5572 5564 5557 5549 5542 5535 5529 5524 5519 5514 5510 5507 5503 5500 5497 5495 5494 5492
5711 5706 5701 5696 5691 5685 5679 5674 5669 5663 5658 5652 5647 5641 5635 5628 5622 5615 5608 5601 5595 5588 5581 5574 5566 5559 5553 5547 5540 5534 5528 5522 5518 5514 5511 5507 5504 5501 5498 5495 5493 5491 5489
5696 5691 5687 5682 5677 5671 5666 5661 5656 5650 5645 5639 5633 5627 5622 5616 5609 5603 5595 5588 5581 5574 5568 5561 5555 5550 5544 5539 5534 5529 5524 5519 5515 5512 5509 5506 5503 5500 5497 5494 5492 5490 5488
5683 5679 5674 5669 5664 5659 5654 5649 5643 5638 5632 5626 5621 5615 5610 5603 5597 5590 5583 5575 5568 5562 5557 5552 5547 5543 5538 5534 5529 5525 5522 5518 5515 5512 5509 5506 5503 5500 5497 5494 5492 5490 5488
5671 5666 5662 5657 5652 5647 5642 5636 5631 5625 5620 5615 5609 5604 5598 5591 5585 5578 5572 5565 5559 5553 5549 5545 5541 5538 5534 5530 5527 5524 5521 5518 5515 5513 5509 5506 5503 5500 5497 5494 5491 5489 5486
5659 5655 5651 5646 5641 5635 5630 5625 5620 5615 5609 5604 5598 5593 5587 5580 5574 5569 5563 5558 5553 5548 5545 5541 5538 5535 5532 5529 5527 5524 5522 5519 5516 5513 5510 5507 5504 5500 5497 5493 5490 5487 5484
5649 5645 5640 5635 5630 5625 5620 5615 5609 5604 5599 5593 5587 5582 5577 5572 5567 5562 5557 5552 5548 5545 5542 5539 5537 5534 5532 5530 5528 5525 5523 5520 5517 5514 5511 5507 5503 5499 5495 5491 5488 5485 5482
5640 5635 5630 5625 5620 5615 5610 5604 5599 5594 5589 5584 5579 5574 5570 5566 5561 5557 5553 5549 5545 5543 5540 5538 5537 5535 5533 5531 5529 5527 5524 5521 5519 5515 5511 5507 5503 5498 5494 5491 5488 5485 5482
5631 5626 5621 5616 5610 5605 5600 5595 5590 5585 5581 5576 5572 5568 5564 5560 5556 5553 5549 5546 5543 5541 5540 5539 5537 5536 5534 5532 5530 5528 5526 5523 5520 5516 5512 5507 5503 5499 5495 5493 5490 5488 5485
5623 5617 5612 5607 5602 5596 5591 5587 5582 5578 5574 5570 5566 5562 5559 5555 5552 5549 5546 5543 5542 5541 5540 5540 5539 5537 5536 5534 5532 5530 5528 5525 5521 5517 5513 5509 5505 5502 5499 5496 5494 5491 5489
5615 5609 5603 5598 5593 5588 5584 5579 5575 5571 5567 5563 5559 5556 5553 5550 5548 5545 5543 5542 5541 5541 5541 5541 5540 5539 5537 5535 5534 5532 5530 5527 5524 5520 5516 5512 5509 5507 5504 5501 5499 5497 5495
5606 5601 5595 5590 5586 5581 5577 5573 5569 5565 5560 5557 5554 5551 5549 5546 5544 5542 5541 5541 5541 5542 5542 5542 5541 5540 5539 5537 5536 5534 5532 5530 5527 5523 5520 5518 5515 5512 5509 5507 5504 5502 5501
5599 5593 5588 5584 5580 5575 5571 5567 5563 5560 5556 5553 5550 5548 5546 5543 5542 5541 5540 5541 5543 5544 5544 5544 5543 5542 5541 5540 5539 5537 5535 5533 5530 5528 5526 5523 5520 5518 5515 5513 5511 5509 5507
5593 5588 5583 5579 5575 5570 5566 5563 5559 5556 5554 5551 5548 5546 5544 5542 5541 5541 5542 5543 5545 5546 5546 5545 5545 5544 5543 5542 5541 5540 5538 5536 5534 5533 5531 5529 5526 5523 5521 5519 5517 5515 5514
5588 5583 5578 5574 5570 5567 5563 5560 5557 5555 5552 5550 5548 5546 5544 5543 5542 5543 5544 5546 5547 5548 5548 5548 5547 5546 5545 5545 5544 5543 5542 5540 5539 5538 5536 5535 5532 5530 5528 5526 5524 5522 5520
5584 5579 5575 5571 5568 5564 5561 5559 5556 5554 5552 5550 5549 5547 5546 5545 5545 5547 5548 5550 5551 5551 5550 5550 5549 5548 5548 5547 5547 5546 5546 5545 5544 5543 5542 5541 5539 5537 5535 5533 5531 5529 5527
5583 5578 5574 5570 5567 5564 5561 5559 5557 5555 5553 5552 5551 5550 5549 5549 5550 5551 5553 5553 5554 5553 5553 5552 5551 5550 5550 5550 5550 5550 5550 5549 5549 5548 5548 5547 5546 5544 5542 5540 5538 5537 5535
5583 5579 5574 5571 5568 5565 5562 5560 5559 5557 5556 5555 5554 5554 5554 5554 5555 5556 5557 5557 5557 5556 5555 5554 5554 5553 5553 5554 5554 5554 5554 5554 5554 5554 5553 5553 5552 5550 5549 5547 5546 5544 5543
5585 5581 5577 5573 5570 5568 5565 5564 5562 5561 5560 5560 5559 5559 5560 5560 5561 5561 5561 5561 5560 5559 5558 5557 5557 5557 5557 5557 5558 5558 5558 5559 5559 5559 5559 5558 5558 5557 5555 5554 5553 5552 5551
5589 5584 5581 5577 5574 5572 5570 5568 5567 5566 5565 5565 5565 5565 5565 5566 5566 5565 5565 5564 5564 5563 5562 5561 5561 5561 5561 5561 5562 5562 5563 5563 5564 5564 5564 5564 5563 5563 5562 5561 5560 5559 5559
5595 5590 5586 5582 5579 5577 5575 5574 5573 5572 5571 5571 5571 5571 5571 5571 5571 5570 5569 5569 5568 5567 5566 5565 5565 5565 5565 5565 5566 5567 5568 5568 5569 5569 5569 5569 5569 5569 5568 5568 5567 5566 5566